sat.trackr.live / text

‹ back to catalog

HUANJING 1B (HJ-1B)

NORAD 33321 · 2008-041B

PAYLOAD ACTIVE UNKNOWN

§ Identity

Operator
Country
PRC
Launch date
2008-09-06
Launch site
TAISC
Launch vehicle
Mass (kg)
RCS (m²)
1.37

Purposes: earth_obs

External: N2YO · Heavens-Above · Gunter

§ Orbital elements

Epoch: 2026-09-20T05:54:04.648896Z

Period
97.07 min
Inclination
97.6627°
Eccentricity
0.0034825
Mean motion
14.83466385 rev/d
Perigee alt
594.0 km
Apogee alt
642.8 km
Semi-major
6,996.5 km
B*
5.2982e-5
RAAN
248.3495°
Arg perigee
230.2010°
Mean anomaly
129.6137°
Rev number
97,250

§ Raw data

HUANJING 1B (HJ-1B)1 33321U 08041B   26263.24588714  .00000387  00000+0  52982-4 0  99902 33321  97.6627 248.3495 0034825 230.2010 129.6137 14.83466385972506

JSON: /api/v1/satellites/33321 · /tle

For live sub-satellite position, see the globe view (requires WebGL).

§ Visibility from observer

Set your observer location to see the next 7 days of passes ≥ 10°. The values pass through the URL so the page stays shareable.

No JS? Fill the form by hand. The geolocation button needs JavaScript.

§ Radio — SatNOGS DB

ModeDescriptionDownlinkUplink
FM Mode X1 8.140 GHz
FM Mode X2 8.260 GHz
BPSK Telemetry 2.210 GHz

3 transmitters · refreshed weekly from db.satnogs.org